User: anonymous   Login
Location: Unspecified
(0.0000°N, 0.0000°E)
Time: 21:57:41
(UTC+01:00)
Language:

GP-B - Orbit

View from above orbital plane
View from above orbital plane
View from above satellite
View from above satellite

Ground track
Ground track

The orbit data is extracted from the following two-line orbital elements,

1 28230U 04014A   14352.45150810  .00001550  00000-0  21365-3 0  2447
2 28230 089.8818 137.3996 0002889 121.2839 238.8666 14.77842687574403
Epoch (UTC): 18 December 2014 10:50:10
Eccentricity: 0.0002889
inclination: 89.8818°
perigee height: 634 km
apogee height: 638 km
right ascension of ascending node: 137.3996°
argument of perigee: 121.2839°
revolutions per day: 14.77842687
mean anomaly at epoch: 238.8666°
orbit number at epoch: 57440

The dashed part of the orbit path shows where the satellite is in the earth's shadow,  

DLR